Location: Meadowbank Aerodrome
(65.0250°N, 96.0705°W)
Time: 23:00:36
(UTC-05:00)

Cosmos 2221 - Visible Passes

Search period start: 30 October 2014 00:00
Search period end: 08 November 2014 23:00
Orbit: 599 x 621 km, 82.5° (Epoch: 29 October)

Date Brightness Start Highest point End Pass type
(mag) Time Alt. Az. Time Alt. Az. Time Alt. Az.
30 Oct 5.6 00:25:09 10° N 00:25:49 13° N 00:25:49 13° N visible
30 Oct 5.7 02:02:43 10° NNW 02:02:46 10° NNW 02:02:46 10° NNW visible
30 Oct 4.6 18:01:48 10° W 18:05:20 23° NW 18:08:53 10° N visible
30 Oct 5.3 19:43:41 10° NW 19:44:43 11° NNW 19:45:44 10° N visible
30 Oct 5.4 23:02:18 10° N 23:03:05 12° N 23:03:05 12° N visible
31 Oct 5.6 00:39:32 10° N 00:40:01 13° N 00:40:01 13° N visible
31 Oct 4.9 18:16:56 10° W 18:20:05 19° NW 18:23:15 10° N visible
31 Oct 5.5 23:16:35 10° N 23:17:18 12° N 23:17:18 12° N visible
01 Nov 5.7 00:53:57 10° NNW 00:54:14 12° N 00:54:14 12° N visible
01 Nov 5.0 18:32:12 10° WNW 18:34:53 16° NW 18:37:35 10° N visible
01 Nov 5.5 23:30:55 10° N 23:31:31 12° N 23:31:31 12° N visible
02 Nov 5.8 01:08:22 10° NNW 01:08:27 11° NNW 01:08:27 11° NNW visible
02 Nov 5.1 17:47:35 10° WNW 17:49:43 13° NNW 17:51:51 10° N visible
02 Nov 5.4 21:08:22 10° N 21:08:47 11° NNE 21:08:47 11° NNE visible
02 Nov 5.6 22:45:16 10° N 22:45:44 12° N 22:45:44 12° N visible
03 Nov 5.2 18:03:09 10° NW 18:04:36 11° NNW 18:06:02 10° N visible
03 Nov 5.4 21:22:28 10° N 21:23:00 11° N 21:23:00 11° N visible
03 Nov 5.7 22:59:38 10° N 22:59:57 12° N 22:59:57 12° N visible
04 Nov 5.4 21:36:42 10° N 21:37:14 12° N 21:37:14 12° N visible
04 Nov 5.8 23:14:01 10° N 23:14:11 11° N 23:14:11 11° N visible
05 Nov 4.9 16:51:52 10° W 16:54:46 17° NW 16:57:41 10° N visible
05 Nov 5.5 21:51:00 10° N 21:51:27 12° N 21:51:27 12° N visible
06 Nov 5.0 17:07:11 10° WNW 17:09:34 14° NNW 17:11:58 10° N visible
06 Nov 5.3 20:28:42 10° NNE 20:28:44 10° NNE 20:28:44 10° NNE visible
06 Nov 5.6 22:05:19 10° N 22:05:41 12° N 22:05:41 12° N visible
07 Nov 5.1 17:22:39 10° NW 17:24:25 12° NNW 17:26:11 10° N visible
07 Nov 5.3 20:42:35 10° N 20:42:57 11° N 20:42:57 11° N visible
07 Nov 5.6 22:19:40 10° N 22:19:54 11° N 22:19:54 11° N visible
08 Nov 5.1 17:38:23 10° NNW 17:39:17 11° NNW 17:40:11 10° N visible
08 Nov 5.3 20:56:46 10° N 20:57:11 11° N 20:57:11 11° N visible
08 Nov 5.7 22:34:01 10° N 22:34:08 11° N 22:34:08 11° N visible
